Tracking 22836 objects as of 18-Apr-2021
HD Live streaming from Space Station
objects crossing your sky now

STARLINK-2113

Track STARLINK-2113 now!
10-day predictions
STARLINK-2113 is classified as:


NORAD ID: 47392
Int'l Code: 2021-005AV
Perigee: 384.1 km
Apogee: 389.6 km
Inclination: 53.1 °
Period: 92.1 minutes
Semi major axis: 6757 km
RCS: Unknown
Launch date: January 20, 2021
Source: United States (US)
Launch site: AIR FORCE EASTERN TEST RANGE (AFETR)
aabbcc
Your satellite tracking list
Your tracking list is empty




NASA's NSSDC Master Catalog

Two Line Element Set (TLE):
1 47392U 21005AV  21107.91667824  .00084859  00000-0  92299-3 0  9995
2 47392  53.0532 142.5957 0004046   1.1797  90.5349 15.62745368  1779
Source of the keplerian elements: AFSPC